FENGYUN 1C DEB

Satellite information

Favourite Embed

Satellite Type and Status

DEBRISIN ORBIT

Key statistics

Satellite FENGYUN 1C DEB at a glance.

Uptime

9715

Days in orbit

Revolutions

≈ 14.0

Per day

Orbit

SSO

Sun Synchronous Orbit

Inclination

98.4

Latest

Satellite identification and parameters

Extended collection of information and parameters for FENGYUN 1C DEB.

Object identification

Identified? True

Debris? True

Object name: FENGYUN 1C DEB

International designator: 1999-025SU

Object number (NORAD): 30139

Object ID (CCSDS): 30139

Country: PEOPLES REPUBLIC OF CHINA (PRC)

Current information (Y/N): Y

RCS size: SMALL

Orbital parameters

Period: 102.589 minutes

Inclination: 98.3654 deg

SMA: 7259.295 km

Apoapsis: 976.221 km

Periapsis: 786.098 km

RAAN: 191.0672 deg

Eccentricy: 0.01309514

Argument of periapsis: 288.2236 deg

Mean anomaly: 125.6037 deg

Mean motion: 14.0365744 rev/day

Mean motion (dot): 0.00002437 rev/day2

B* drag term: 0.0014608596 1/REarth

Two-line elements (TLE)

Creation date: Dec. 14, 2025, 3:07 a.m.

Reference frame: TEME

Reference center: EARTH

Epoch: Dec. 13, 2025, 1:01 p.m. UTC

TLE line 0: 0 FENGYUN 1C DEB

TLE line 1: 1 30139U 99025SU 25347.54290994 .00002437 00000-0 14609-2 0 9992

TLE line 2: 2 30139 98.3654 191.0672 0130951 288.2236 125.6037 14.03657440962611

Live tracking on map

Real-time ground track for satellite FENGYUN 1C DEB.

In-orbit conjunctions

A list of the most updated potential collisions computed for object FENGYUN 1C DEB.

Target Orbit TCA Probability of collision Miss distance Type
DELTA 1 DEB SSO 2024-11-14 01:45:34 0.001817606 85.0 (m) DEBRIS
METEOR 2-10 LEO 2024-11-01 05:32:26 0.0003281131 142.0 (m) PAYLOAD
CZ-6A DEB LEO 2024-10-04 01:34:22 0.0004300126 735.0 (m) DEBRIS
COSMOS 489 LEO 2024-09-20 17:55:13 0.0002175106 406.0 (m) PAYLOAD

Associated space launch

Chinese polar orbiting meteorological satellite

FENGYUN 1C DEB was lifted into orbit during the mission ‘Long March 4B | Feng Yun 1C’, on board a Long March 4B space rocket.

The launch took place on May 10, 1999, 1:33 a.m. from Launch Complex 7.

For more information about the launch, click the button.

Launch to space Long March 4B | Feng Yun 1C
Long March 4B | Feng Yun 1C

Agency: N/A

Status: Launch Successful

Launch date: May 10, 1999, 1:33 a.m. UTC

Rocket: Long March 4B

Launch pad: Launch Complex 7

Location: Taiyuan Satellite Launch Center, People's Republic of China

...

Latest news about this satellite

There are no fresh news available about this satellite. Check back as we update our databases every day.


Newsletter sign-up

Weekly statistics, charts and insights to help you stay on top of the space industry.